AEE220 LGAV-LGMK

Flight info

Callsign AEE220
Flight time 0h 27m
Altitude 11000
Route KEA1N KEA L995 VARIX VARIX1P
Aircraft A21N/M-SDE3L/L

Departure

Time 2026-04-21 18:35
Airport Athens Eleftherios Venizelos International Airport (LGAV)

Arrival

Time 2026-04-21 19:03
Airport Mykonos Island National Airport (LGMK)
Time Latitude Longitude Altitude Speed Heading
2026-04-21 18:17 37.94026 23.95294 301 ft 0 kts 37°
2026-04-21 18:27 37.94024 23.95291 301 ft 3 kts 37°
2026-04-21 18:27 37.94002 23.95271 304 ft 4 kts 37°
2026-04-21 18:28 37.93986 23.95255 302 ft 4 kts 46°
2026-04-21 18:28 37.93972 23.95231 302 ft 4 kts 96°
2026-04-21 18:28 37.93977 23.95205 301 ft 1 kts 126°
2026-04-21 18:31 37.93967 23.95223 301 ft 8 kts 126°
2026-04-21 18:31 37.93903 23.95330 303 ft 23 kts 128°
2026-04-21 18:31 37.93853 23.95460 297 ft 14 kts 73°
2026-04-21 18:31 37.93963 23.95573 299 ft 28 kts 36°
2026-04-21 18:32 37.94129 23.95734 299 ft 17 kts 37°
2026-04-21 18:32 37.94232 23.95827 298 ft 22 kts 36°
2026-04-21 18:32 37.94367 23.95958 298 ft 27 kts 37°
2026-04-21 18:32 37.94534 23.96111 299 ft 32 kts 40°
2026-04-21 18:33 37.94718 23.96294 301 ft 36 kts 37°
2026-04-21 18:33 37.94928 23.96494 303 ft 39 kts 38°
2026-04-21 18:33 37.95149 23.96705 304 ft 41 kts 35°
2026-04-21 18:33 37.95300 23.96883 306 ft 13 kts 81°
2026-04-21 18:34 37.95253 23.96974 308 ft 0 kts 134°
2026-04-21 18:34 37.95251 23.96977 308 ft 2 kts 134°
2026-04-21 18:34 37.95183 23.97006 310 ft 8 kts 193°
2026-04-21 18:35 37.95123 23.96960 309 ft 0 kts 215°
2026-04-21 18:35 37.95116 23.96954 309 ft 6 kts 215°
2026-04-21 18:35 37.94206 23.96087 287 ft 142 kts 219°
2026-04-21 18:35 37.92063 23.94101 1263 ft 221 kts 212°
2026-04-21 18:36 37.89691 23.92514 2244 ft 184 kts 207°
2026-04-21 18:36 37.87057 23.90821 3519 ft 239 kts 209°
2026-04-21 18:36 37.84023 23.88797 4733 ft 249 kts 210°
2026-04-21 18:36 37.80929 23.86719 5924 ft 254 kts 210°
2026-04-21 18:37 37.77720 23.84761 6918 ft 262 kts 194°
2026-04-21 18:37 37.74266 23.85935 6995 ft 272 kts 137°
2026-04-21 18:37 37.73222 23.87865 7000 ft 274 kts 117°
2026-04-21 18:38 37.72512 23.89637 8712 ft 211 kts 119°
2026-04-21 18:38 37.71748 23.91430 9544 ft 257 kts 119°
2026-04-21 18:39 37.70840 23.93607 10175 ft 298 kts 118°
2026-04-21 18:39 37.69825 23.96071 10714 ft 329 kts 118°
2026-04-21 18:39 37.68733 23.98721 10997 ft 347 kts 118°
2026-04-21 18:39 37.67617 24.01420 11577 ft 351 kts 118°
2026-04-21 18:40 37.66469 24.04184 12149 ft 356 kts 118°
2026-04-21 18:40 37.65309 24.06969 12633 ft 364 kts 119°
2026-04-21 18:40 37.64512 24.08877 12648 ft 376 kts 118°
2026-04-21 18:40 37.62835 24.12883 12610 ft 395 kts 118°
2026-04-21 18:41 37.61538 24.15982 12589 ft 404 kts 118°
2026-04-21 18:41 37.60216 24.19138 12556 ft 410 kts 118°
2026-04-21 18:41 37.58879 24.22328 12527 ft 414 kts 118°
2026-04-21 18:41 37.57530 24.25545 12498 ft 416 kts 118°
2026-04-21 18:42 37.56175 24.28773 12473 ft 418 kts 118°
2026-04-21 18:42 37.54808 24.32007 12426 ft 419 kts 119°
2026-04-21 18:42 37.53428 24.35246 12406 ft 419 kts 119°
2026-04-21 18:42 37.52029 24.38471 12377 ft 419 kts 120°
2026-04-21 18:43 37.50629 24.41635 12886 ft 406 kts 120°
2026-04-21 18:43 37.49286 24.44681 13753 ft 390 kts 120°
2026-04-21 18:43 37.48001 24.47602 14672 ft 376 kts 120°
2026-04-21 18:43 37.46745 24.50463 15357 ft 374 kts 120°
2026-04-21 18:44 37.45477 24.53345 15788 ft 379 kts 120°
2026-04-21 18:44 37.44207 24.56225 16249 ft 382 kts 120°
2026-04-21 18:44 37.42897 24.59202 16717 ft 385 kts 120°
2026-04-21 18:44 37.41762 24.62258 17145 ft 389 kts 107°
2026-04-21 18:45 37.41255 24.65639 17285 ft 399 kts 96°
2026-04-21 18:45 37.40993 24.69118 17253 ft 410 kts 94°
2026-04-21 18:45 37.40693 24.72728 17234 ft 419 kts 96°
2026-04-21 18:45 37.40293 24.76386 17186 ft 424 kts 98°
2026-04-21 18:46 37.39820 24.80022 17144 ft 420 kts 99°
2026-04-21 18:46 37.39315 24.83591 16965 ft 386 kts 100°
2026-04-21 18:46 37.38857 24.86719 15955 ft 357 kts 100°
2026-04-21 18:46 37.38409 24.89740 14895 ft 338 kts 100°
2026-04-21 18:47 37.37984 24.92602 13697 ft 328 kts 100°
2026-04-21 18:47 37.37578 24.95345 12416 ft 320 kts 100°
2026-04-21 18:47 37.37179 24.98054 11175 ft 312 kts 100°
2026-04-21 18:47 37.36788 25.00703 9989 ft 304 kts 100°
2026-04-21 18:48 37.36405 25.03283 8718 ft 297 kts 100°
2026-04-21 18:48 37.35851 25.05731 7520 ft 289 kts 118°
2026-04-21 18:48 37.35058 25.07137 6668 ft 285 kts 136°
2026-04-21 18:48 37.33453 25.08416 5519 ft 277 kts 165°
2026-04-21 18:49 37.31630 25.08599 4808 ft 254 kts 191°
2026-04-21 18:49 37.29941 25.07946 4403 ft 269 kts 208°
2026-04-21 18:49 37.28890 25.07111 4230 ft 266 kts 221°
2026-04-21 18:49 37.27422 25.04709 4049 ft 258 kts 248°
2026-04-21 18:50 37.27030 25.02604 4024 ft 239 kts 269°
2026-04-21 18:50 37.27370 25.00588 4033 ft 256 kts 296°
2026-04-21 18:50 37.28571 24.98847 4015 ft 272 kts 325°
2026-04-21 18:50 37.30319 24.98018 3960 ft 269 kts 353°
2026-04-21 18:51 37.32153 24.98301 3608 ft 269 kts 21°
2026-04-21 18:51 37.33693 24.99618 3208 ft 269 kts 44°
2026-04-21 18:51 37.35006 25.01347 3052 ft 275 kts 46°
2026-04-21 18:51 37.36185 25.03188 3017 ft 264 kts 60°
2026-04-21 18:52 37.36881 25.05196 3016 ft 245 kts 76°
2026-04-21 18:52 37.37302 25.07201 3021 ft 229 kts 75°
2026-04-21 18:52 37.37751 25.09088 3016 ft 216 kts 73°
2026-04-21 18:52 37.38193 25.10842 3018 ft 210 kts 73°
2026-04-21 18:53 37.38874 25.12466 3018 ft 209 kts 44°
2026-04-21 18:53 37.39971 25.13652 3021 ft 211 kts 35°
2026-04-21 18:53 37.41247 25.14588 3021 ft 209 kts 25°
2026-04-21 18:53 37.42530 25.15396 3003 ft 209 kts 25°
2026-04-21 18:54 37.43847 25.16156 2997 ft 208 kts 15°
2026-04-21 18:54 37.45234 25.16693 2999 ft 208 kts 15°
2026-04-21 18:54 37.46619 25.17223 2997 ft 209 kts 15°
2026-04-21 18:54 37.48006 25.17757 2997 ft 208 kts 15°
2026-04-21 18:55 37.48900 25.18259 2999 ft 210 kts 36°
2026-04-21 18:55 37.50119 25.20075 2985 ft 193 kts 55°
2026-04-21 18:55 37.50841 25.21380 2997 ft 170 kts 55°
2026-04-21 18:55 37.51482 25.22538 2889 ft 150 kts 55°
2026-04-21 18:56 37.52046 25.23557 2730 ft 137 kts 55°
2026-04-21 18:56 37.52586 25.24533 2459 ft 136 kts 58°
2026-04-21 18:56 37.53001 25.25598 2175 ft 134 kts 78°
2026-04-21 18:56 37.52948 25.26717 1951 ft 126 kts 105°
2026-04-21 18:57 37.52787 25.27844 1990 ft 132 kts 105°
2026-04-21 18:57 37.52615 25.28962 1994 ft 130 kts 109°
2026-04-21 18:57 37.52386 25.30060 1994 ft 129 kts 111°
2026-04-21 18:57 37.51922 25.30960 1964 ft 122 kts 148°
2026-04-21 18:58 37.51199 25.31478 1766 ft 114 kts 163°
2026-04-21 18:58 37.50702 25.31706 1761 ft 117 kts 167°
2026-04-21 18:58 37.49927 25.32018 1809 ft 117 kts 168°
2026-04-21 18:58 37.49149 25.32329 1701 ft 116 kts 168°
2026-04-21 18:59 37.48383 25.32660 1400 ft 117 kts 164°
2026-04-21 18:59 37.47632 25.33045 1262 ft 116 kts 165°
2026-04-21 18:59 37.46862 25.33379 1119 ft 117 kts 168°
2026-04-21 18:59 37.46058 25.33624 995 ft 133 kts 172°
2026-04-21 19:00 37.44974 25.34091 777 ft 184 kts 157°
2026-04-21 19:00 37.43951 25.34712 730 ft 141 kts 158°
2026-04-21 19:00 37.43123 25.35127 745 ft 123 kts 162°
2026-04-21 19:00 37.42426 25.35700 823 ft 120 kts 135°
2026-04-21 19:01 37.41988 25.36608 850 ft 123 kts 121°
2026-04-21 19:01 37.41597 25.37556 786 ft 117 kts 124°
2026-04-21 19:01 37.41105 25.38347 948 ft 115 kts 153°
2026-04-21 19:01 37.40365 25.38267 1017 ft 113 kts 229°
2026-04-21 19:02 37.40291 25.37311 1317 ft 122 kts 281°
2026-04-21 19:02 37.40686 25.36367 1018 ft 129 kts 306°
2026-04-21 19:02 37.41437 25.35710 741 ft 133 kts 335°
2026-04-21 19:02 37.42287 25.35346 531 ft 128 kts 343°
2026-04-21 19:03 37.43093 25.34992 409 ft 100 kts 341°
2026-04-21 19:03 37.43504 25.34830 410 ft 22 kts 340°
2026-04-21 19:03 37.43642 25.34745 411 ft 15 kts 305°
2026-04-21 19:03 37.43640 25.34691 405 ft 0 kts 246°
2026-04-21 19:04 37.43614 25.34674 408 ft 0 kts 195°
2026-04-21 19:04 37.43579 25.34679 404 ft 13 kts 174°
2026-04-21 19:04 37.43529 25.34700 408 ft 4 kts 156°
2026-04-21 19:04 37.43524 25.34702 408 ft 0 kts 156°
2026-04-21 19:05 37.43503 25.34713 408 ft 10 kts 160°
2026-04-21 19:05 37.43482 25.34710 408 ft 1 kts 202°
2026-04-21 19:05 37.43471 25.34682 406 ft 2 kts 247°
2026-04-21 19:05 37.43465 25.34666 407 ft 0 kts 248°
2026-04-21 19:06 37.43466 25.34667 407 ft 0 kts 248°
2026-04-21 19:06 37.43466 25.34668 407 ft 0 kts 248°